STARLINK-35442 (66319 NORAD) Tracking and Keplerian Element Data

This shows tracking and keplerian element data for the satellite.

Feedback or suggestion? Click here.




ElementValue
Catalog66319
NameSTARLINK-35442
Epoch Orbit807
Epoch Day354.22019319
Epoch Year2025
RAAN302.7907
Inclination43.0005
Eccentricity0.0001714
Argument of Perigee264.1079
Mean Anonmoly95.9582
Mean Motion15.4072601
Decay Rate0.00046221
L11 66319U 25253A 25354.22019319 .00046221 00000+0 11061-2 0 9993
L22 66319 43.0005 302.7907 0001714 264.1079 95.9582 15.40726010 8078



Live tracking and technical data element details for STARLINK-35442 (NORAD 66319). STARLINK-35442 can be tracked NOW for your location showing map with azimuth and elevation plus other details from your city location.







IsCatalogInMostPopularTable: catalog: 66319, numindb: 11
Update: records affected: 1



GetName: 66319 STARLINK-35442

Hit Count: updated at: Tue, 21 Apr 2026 20:47:40 GMT